Regional Weather Roundup
Issued by NWS Portland, ME

Current Version | Previous Version | Text Only | Print | Product List | Glossary Off
Versions: 1 2 3 4 5 6 7 8 9 10 11 12 13 14 15 16 17 18 19 20 21 22 23 24 25 26 27 28 29 30 31 32 33 34 35 36 37 38 39 40 41 42 43 44 45 46 47 48 49 50
099 ASUS41 KGYX 231610 RWRGYX WEATHER ROUNDUP FOR MAINE AND NEW HAMPSHIRE NATIONAL WEATHER SERVICE GRAY ME 1100 AM EST WED JAN 23 2019 MEZ002-005-006-010-012-015-018-020-021-024-026-027-029-231700- MAINE CITY SKY/WX TMP DP RH WIND PRES REMARKS PORTLAND CLOUDY 31 13 47 S15G25 30.23F SANFORD FLURRIES 28 15 58 SW8G16 30.21F BAR HARBOR FAIR 32 20 61 S18G26 30.23F WISCASSET PTSUNNY 34 21 59 SW16G28 30.23F ROCKLAND CLOUDY 35 24 64 SW20G31 30.22F FRYEBURG CLOUDY 24 2 38 S6 30.17F LEWISTONAUBURN CLOUDY 28 12 51 S12 30.20F WCI 18 AUGUSTA CLOUDY 28 12 51 SW10G20 30.18F WCI 19 WATERVILLE CLOUDY 24 11 57 MISG 30.15F BANGOR CLOUDY 26 15 63 S14 30.19F WCI 14 GREENVILLE N/A 11 1 64 E7 30.05F MILLINOCKET LGT SNOW 10 4 76 VRB3 30.20F HOULTON HVY SNOW 10 4 76 S8 30.18F VSB 1/4 PRESQUE ISLE LGT SNOW 9 1 72 SE9 30.17F FRENCHVILLE LGT SNOW 6 0 76 SE9 30.09F VSB 3/4 CARIBOU SNOW 8 2 76 S13 30.15F VSB 1/2 WCI -8 $$ NHZ002-005-008-009-011-012-014-231700- NEW HAMPSHIRE CITY SKY/WX TMP DP RH WIND PRES REMARKS PORTSMOUTH CLOUDY 30 16 55 S10 30.21F ROCHESTER MIX PCPN 26 14 60 S3 30.21F NASHUA CLOUDY 31 19 61 VRB6 30.23F MANCHESTER CLOUDY 29 15 56 S10 30.20F WCI 20 CONCORD CLOUDY 26 14 60 S8 30.20F LACONIA CLOUDY 23 8 52 CALM 30.18F PLYMOUTH CLOUDY 20 2 46 CALM 30.19F BERLIN CLOUDY 13 6 74 N3 30.09F WHITEFIELD CLOUDY 15 9 76 CALM 30.09S JAFFREY CLOUDY 29 14 53 S12G25 30.17F WCI 19 KEENE CLOUDY 29 14 53 S12 30.19F WCI 19 LEBANON CLOUDY 28 10 46 S7 30.13F MT WASHINGTON BLWGSNOW 23 23 100 W62 N/A VSB 0 WCI 0 $$ VTZ005-007-008-231700- VERMONT CITY SKY/WX TMP DP RH WIND PRES REMARKS MONTPELIER CLOUDY 22 7 52 S9 30.09F BURLINGTON PTSUNNY 28 11 48 S18G30 30.07F WCI 15 $$ MAZ007-012-024-CTZ003-RIZ002-NYZ038-NYZ072-231700- SOUTHERN NEW ENGLAND AND NY CITY SKY/WX TMP DP RH WIND PRES REMARKS BOSTON CLOUDY 34 25 69 SW15 30.27F WORCESTER CLOUDY 30 19 63 SW16G24 30.21F WCI 19 NANTUCKET CLOUDY 40 34 79 S12 30.38F PROVIDENCE CLOUDY 36 28 73 S12 30.31F HARTFORD CLOUDY 30 20 66 S10 30.26F ALBANY CLOUDY 30 13 49 S15G22 30.18F WCI 19 NEW YORK CITY CLOUDY 36 16 44 SW10 30.30F $$ ANZ081-ANZ082-ANZ150-NHZ014-MEZ023>029-231700- COASTAL MARINE OBSERVATIONS STATION/POSITION TIME TEMP WIND PRES WAVE AIR SEA DIR/SP/G HT/PER (UTC) (F) (DEG/KT/KT) (MB) (FT/S) MOUNT DESERT ROC 1600 34 190/ 29/ 32 1024.9F MATINICUS ROCK 1500 34 210/ 32/ 34 1025.5F ISLE OF SHOALS 1500 31 210/ 28/ 32 1025.2F JEFFREYS LEDGE 1538 41 N/A 5/ 5 CASHES LEDGE BUO 1550 38 40 1025.4F 6/ 6 $$ .............KEY.............. WCI - WIND CHILL TC - TEMPERATURE IN CELSIUS VSB - VISIBILITY IN MILES HX - HEAT INDEX FAIR- INDICATES FEW OR NO CLOUDS BELOW 12,000 FT, WITH NO SIGNIFICANT WEATHER AND/OR OBSTRUCTIONS TO VISIBILITY.

USA.gov is the U.S. government's official web portal to all federal, state and local government web resources and services.